Regional Weather Roundup
Issued by NWS

Home | Current Version | Previous Version | Graphics & Text | Print | Product List | Glossary On
Versions: 1 2 3 4 5 6 7 8 9 10 11 12 13 14 15 16 17 18 19 20 21 22 23 24 25 26 27 28 29 30 31 32 33 34 35 36 37 38 39 40 41 42 43 44 45 46 47 48 49 50
000
ASUS43 KFSD 310702
RWRSD

WEATHER ROUNDUP FOR SOUTH DAKOTA
NATIONAL WEATHER SERVICE SIOUX FALLS SD
200 AM CDT THU JUL 31 2014

NOTE: "FAIR" INDICATES FEW OR NO CLOUDS BELOW 12,000 FEET WITH NO
SIGNIFICANT WEATHER AND/OR OBSTRUCTIONS TO VISIBILITY.


SDZ001>005-009-010-012>017-310800-
NORTHWEST AND NORTH CENTRAL SOUTH DAKOTA

CITY           SKY/WX    TMP DP  RH WIND       PRES   REMARKS
BUFFALO          N/A     66  52  60 SW3       30.10F
FAITH            N/A     67  55  65 E5        30.12F
MOBRIDGE       MOCLDY    64  55  72 E6        30.08S
$$

SDZ012>016-024>037-041>051-057-063-072>074-310800-
SOUTHWEST AND SOUTH CENTRAL SOUTH DAKOTA

CITY           SKY/WX    TMP DP  RH WIND       PRES   REMARKS
RAPID CTY ARPT CLEAR     61  50  67 N8        30.17F
PIERRE         PTCLDY    64  56  75 E7        30.06F
CUSTER         MOCLDY    55  43  63 N6        30.30F
ELLSWORTH AFB  CLEAR     63  50  63 N6        30.17F
PHILIP         CLEAR     63  52  67 VRB5      30.09S
PINE RIDGE     MOCLDY    54  51  90 E3        30.17S
WINNER         FAIR      68  55  63 S7        30.05F
$$

SDZ004>011-016>023-039-040-310800-
NORTHEAST SOUTH DAKOTA

CITY           SKY/WX    TMP DP  RH WIND       PRES   REMARKS
ABERDEEN       MOCLDY    62  56  80 CALM      30.08F
WATERTOWN      CLEAR     58  53  84 CALM      30.10F
SISSETON         N/A     55  53  93 CALM      30.06F
$$

SDZ017-020-022-023-036>040-048>070-310800-
SOUTHEAST SOUTH DAKOTA

CITY           SKY/WX    TMP DP  RH WIND       PRES   REMARKS
SIOUX FALLS    CLEAR     58  54  86 CALM      30.10S
HURON          PTCLDY    62  57  83 SE3       30.08F
CHAMBERLAIN    MOCLDY    64  55  71 SE7       30.07F
MITCHELL       MOCLDY    68  57  68 S6        30.08F
YANKTON        PTCLDY    63  55  77 CALM      30.10S
$$

ABBREVIATIONS USED IN REMARKS
   TC - TEMPERATURE IN CELSIUS
  WCI - WIND CHILL INDEX
   HX - HEAT INDEX
  VSB - VISIBILITY




USA.gov is the U.S. government's official web portal to all federal, state and local government web resources and services.